Regional Weather Roundup
Issued by NWS Northern Indiana

Home | Current Version | Previous Version | Text Only | Print | Product List | Glossary Off
Versions: 1 2 3 4 5 6 7 8 9 10 11 12 13 14 15 16 17 18 19 20 21 22 23 24 25 26 27 28 29 30 31 32 33 34 35 36 37 38 39 40 41 42 43 44 45 46 47 48 49 50

000
ASUS43 KIWX 261600
RWRIWX

KIWX WEATHER ROUNDUP
NATIONAL WEATHER SERVICE NORTHERN INDIANA
1200 PM EDT THU MAY 26 2016

NOTE: "FAIR" INDICATES FEW OR NO CLOUDS BELOW 12,000 FEET WITH NO
SIGNIFICANT WEATHER AND/OR OBSTRUCTIONS TO VISIBILITY.

* THESE STATIONS ARE NOT UNDER NWS QUALITY CONTROL. THEY ALSO MAY NOT
  REPORT WEATHER SUCH AS PRECIPITATION OR FOG.

INZ001>027-261700-
NORTHERN INDIANA

CITY           SKY/WX    TMP DP  RH WIND       PRES   REMARKS
SOUTH BEND     CLOUDY    76  66  71 SW12      29.98R
GOSHEN         PTSUNNY   79  64  60 S12       29.98R
ANGOLA*        PTSUNNY   79  73  83 SW9       29.99S
FORT WAYNE     PTSUNNY   79  64  60 SW13      30.01R

$$
INZ028>050-261700-
CENTRAL INDIANA

CITY           SKY/WX    TMP DP  RH WIND       PRES   REMARKS
LAFAYETTE      LGT RAIN  66  64  93 S5        30.01F
KOKOMO*        CLOUDY    73  64  73 SW12      30.02R
MUNCIE*        CLOUDY    75  64  68 SW10      30.03R
INDIANAPOLIS   TSTM      73  67  81 S8        30.00

$$
MIZ043>046-050>051-056>058-064>065-071>073-077>080-261700-
SOUTHWEST LOWER MICHIGAN

CITY           SKY/WX    TMP DP  RH WIND       PRES   REMARKS
BATTLE CREEK   CLOUDY    75  66  73 SW12      29.98S
BENTON HARBOR  CLOUDY    77  66  68 SW14      29.96R
COLDWATER*     CLOUDY    78  64  62 SW12G17   29.99R
HILLSDALE*     CLOUDY    77  60  55 SW9       29.99F
HOLLAND        MOSUNNY   77  67  71 SW12      29.94F
GRAND RAPIDS   PTSUNNY   79  68  69 SW10      29.94F
KALAMAZOO      CLOUDY    76  67  73 SW8       29.97S
STURGIS*       CLOUDY    77  66  68 S6        29.97S
THREE RIVERS*  FAIR      78  66  67 SW6       29.97S

$$
OHZ001>008-015>018-024>025-261700-
NORTHWEST OHIO

CITY           SKY/WX    TMP DP  RH WIND       PRES   REMARKS
DEFIANCE       PTSUNNY   79  63  57 SW9       29.99F
FINDLAY        MOSUNNY   79  62  56 SW13      30.01S
TOLEDO EXPRESS MOSUNNY   80  63  55 SW12      29.99S
TOLEDO METCALF SUNNY     80  64  58 SW13G18   30.00F
LIMA           PTSUNNY   77  64  64 SW9G20    30.02S

$$
AND FOR LAKE MICHIGAN COASTAL AND OPEN LAKE BUOY OBSERVATIONS

STATION/POSITION TEMP    WIND        PRES    VSBY  WAVE
                 AIR SEA DIR/SP/G                  HT/PER
                 (F)     (DEG/KT/KT) (MB)    (MI)  (FT/S)
CALUMET HARBOR    73     200/  7/ 11 1012.6F
MICHIGAN CITY     73     190/ 13/ 15   N/A
BURNS HARBOR      72     200/ 10/ 13 1014.2S
SAINT JOSEPH      70     180/  8/  9 1014.6F
SOUTH LAKE BUOY   53 49  180/  8/ 10 1012.9          1/ 3
4 MI NW BRIDGMAN  64 60  210/  4/  6   N/A           1
MICHIGAN CITY     64 58  220/  6/  8   N/A           1

$$
&&




USA.gov is the U.S. government's official web portal to all federal, state and local government web resources and services.